Regional Weather Roundup
Issued by NWS Bismarck, ND

Home | Current Version | Previous Version | Text Only | Print | Product List | Glossary On
Versions: 1 2 3 4 5 6 7 8 9 10 11 12 13 14 15 16 17 18 19 20 21 22 23 24 25 26 27 28 29 30 31 32 33 34 35 36 37 38 39 40 41 42 43 44 45 46 47 48 49 50
000
ASUS43 KBIS 300810
RWRBIS

NWR BROADCAST TEXT
NATIONAL WEATHER SERVICE BISMARCK ND
200 AM CST FRI JAN 30 2015

NOTE: "FAIR" INDICATES FEW OR NO CLOUDS BELOW 12,000 FEET WITH NO
SIGNIFICANT WEATHER AND/OR OBSTRUCTIONS TO VISIBILITY.


CITY           SKY/WX    TMP DP  RH WIND       PRES   REMARKS
WILLISTON      PTCLDY    26  19  74 CALM      30.20F
MINOT          CLOUDY    18  14  84 SE7       30.28F WCI   9
MINOT AFB      CLOUDY    16  16  99 SE10      30.27F WCI   4
BISMARCK       CLEAR     19  17  92 SE9       30.36F WCI   8
DICKINSON      CLEAR     25  17  72 S12       30.21F WCI  14
GARRISON         N/A     17  14  88 SE6       30.29F WCI   9
HETTINGER ARPT CLEAR     24  16  71 SE6       30.28F WCI  17
JAMESTOWN      CLOUDY    18  13  80 S16       30.40F WCI   3
BEACH          FAIR      28  21  74 S8        30.21F
CARRINGTON     CLOUDY    16  16 100 MISG      30.39F
CROSBY         FAIR      25  23  93 S14       30.18F WCI  13
HARVEY         FAIR      14  14 100 SE10      30.35F WCI   1
HAZEN          FAIR      21  18  86 CALM      30.31F
LINTON         FAIR      19  19 100 SE13G18   30.38F WCI   7
MANDAN         FAIR      19  18  93 S13       30.34F WCI   7
OAKES            N/A     18  14  86 S9        30.48S WCI   6
RUGBY          FAIR      14  10  85 SE9       30.36S WCI   2
TIOGA          FAIR      19  19 100 SE6       30.23F WCI  11
WATFORD CITY   FAIR      27  19  74 CALM      30.17F
$$

CITY           SKY/WX    TMP DP  RH WIND       PRES   REMARKS
GRAND FORKS    CLOUDY     6  -1  73 SE8       30.52F WCI  -7
GRAND FORKS AF CLOUDY     7   1  76 S8        30.51F WCI  -6
DEVILS LAKE    MOCLDY    12   7  79 S12       30.38F WCI  -2
FARGO          PTCLDY     9   1  70 SE5       30.53F WCI   1
CANDO          CLOUDY    12  10  92 S9        30.38F WCI   0
CAVALIER       FAIR       7   1  78 S8        30.48F WCI  -6
GWINNER        CLOUDY    19  14  79 SE7       30.50F WCI  10
ROLLA          CLOUDY    10  10 100 S15       30.34F WCI  -6
WALHALLA         N/A      7   5  92 SE8       30.47F WCI  -6
$$

CITY           SKY/WX    TMP DP  RH WIND       PRES   REMARKS
ABERDEEN       CLEAR     16  12  84 S3        30.48F
MOBRIDGE       CLEAR     20  17  88 S13       30.36F WCI   7
BUFFALO          N/A     25  16  68 S9        30.18F WCI  15
RAPID CITY     PTCLDY    22  13  68 SE5       30.26F WCI  16
GLASGOW        CLEAR     26  21  81 E8        30.16F WCI  18
SIDNEY         PTCLDY    25  21  86 CALM      30.19F
WOLF POINT     PTCLDY    24  19  81 CALM      30.18F
GLENDIVE       PTCLDY    27  21  80 S7        30.21S WCI  19
MILES CITY     PTCLDY    31  23  72 S8        30.20F
BAKER          CLEAR     28  18  66 E5        30.21F
$$

CITY           SKY/WX    TMP DP  RH WIND       PRES   REMARKS
BILLINGS       PTCLDY    36  28  73 SW14      30.21F
GREAT FALLS    CLEAR     33  18  53 SW12      30.20F
REGINA         CLEAR     14  12  92 SE12      30.17F WCI   0
ESTEVAN        PTCLDY    14  12  92 E10       30.19F WCI   1
$$



USA.gov is the U.S. government's official web portal to all federal, state and local government web resources and services.